Meteo Giornale » Osservazioni meteo Gran Bretagna » Manchester

ore: 04:50 - Osservazioni Meteo Manchester
Lat. 53° 21' N Lon. 2° 17' W Alt. 69 metri s.l.m.

molto_nuvoloso Europe/London

14 °C

Molto Nuvoloso

Temp. 24 Ore

7 °C

14 °C

Sud/Sud-Ovest

16.7 Km/h

Dew point 13 °C

Umidità 93 %

Visibilità  10 Km

Il sole sorge alle ore 07:03

Il sole tramonta alle ore 16:42

Data e Ora Cielo e Fenomeni T °C DP °C Um. % Pres. hPa Vis. km Vento km/h
Oggi h: 04:50 molto_nuvoloso Molto Nuvoloso 14 13 93 1007 10 S/SO 16.7
Oggi h: 04:20 molto_nuvoloso Molto Nuvoloso 14 13 93 1006 10 S/SO 18.5
Oggi h: 03:50 coperto Coperto 14 13 93 1006 10 S/SO 22.2
Oggi h: 03:20 coperto_pioggia Pioggia Debole 14 13 93 1006 10 SO 20.3
Oggi h: 02:50 molto_nuvoloso Molto Nuvoloso 14 13 93 1006 10 SO 25.9
Oggi h: 02:20 coperto Coperto 14 13 93 1006 10 SO 24
Oggi h: 01:50 coperto Coperto 14 13 93 1006 10 SO 22.2
Oggi h: 01:20 coperto Coperto 14 13 93 1005 10 SO 22.2
Oggi h: 00:50 coperto_pioggia Pioggia Debole 14 13 93 1006 10 S/SO 18.5
Oggi h: 00:20 coperto_pioggia Pioggia Debole 14 13 93 1006 8 S/SO 18.5
Ieri h: 23:50 coperto_pioggia Pioggia Debole 14 13 93 1005 10 S/SO 18.5
Ieri h: 23:20 coperto Coperto 14 12 87 1005 10 S/SO 22.2
Ieri h: 22:50 molto_nuvoloso Molto Nuvoloso 14 12 87 1005 10 S/SO 22.2
Ieri h: 22:20 coperto_pioggia Pioggia 14 12 87 1005 5 S/SO 20.3
Ieri h: 21:50 molto_nuvoloso Molto Nuvoloso 14 12 87 1005 10 S/SO 20.3
Ieri h: 21:20 molto_nuvoloso Molto Nuvoloso 14 12 87 1005 10 S/SO 25.9
Ieri h: 20:50 molto_nuvoloso Molto Nuvoloso 14 12 87 1005 10 S/SO 24
Ieri h: 20:20 molto_nuvoloso Molto Nuvoloso 14 12 87 1005 10 S/SO 22.2
Ieri h: 19:50 molto_nuvoloso Molto Nuvoloso 14 12 87 1005 10 S/SO 18.5
Ieri h: 19:20 coperto_pioggia Pioggia Debole 14 12 87 1005 10 S/SO 18.5
Ieri h: 18:50 molto_nuvoloso Molto Nuvoloso 14 12 87 1005 10 S 11.1
Ieri h: 18:20 coperto Coperto 14 12 87 1005 10 S/SO 14.8
Ieri h: 17:50 coperto Coperto 14 12 87 1005 10 S/SO 16.7
Ieri h: 17:20 coperto Coperto 14 12 87 1005 10 S/SO 18.5
Ieri h: 16:50 coperto Coperto 14 12 87 1004 10 SO 22.2
Ieri h: 16:20 coperto_pioggia Pioggia Debole 14 12 87 1005 10 SO 20.3
Ieri h: 15:50 coperto_pioggia Pioggia Debole 14 12 87 1004 10 S/SO 20.3
Ieri h: 15:20 coperto_pioggia Pioggia Debole 13 12 93 1004 10 S/SO 14.8
Ieri h: 14:50 coperto_pioggia Pioggia Debole 13 12 93 1005 10 SO 16.7
Ieri h: 14:20 coperto_pioggia Pioggia Debole 14 12 87 1004 10 SO 16.7
Ieri h: 13:50 coperto_pioggia Pioggia Debole 13 12 93 1004 10 S/SO 18.5
Ieri h: 13:20 coperto_pioggia Pioggia Debole 13 12 93 1004 10 S/SO 18.5
Ieri h: 12:50 coperto_pioggia Pioggia Debole 12 12 100 1004 10 S 18.5
Ieri h: 12:20 coperto_pioggia Pioggia Debole 12 11 93 1004 9 S 16.7
Ieri h: 11:50 coperto_pioggia Pioggia Debole 12 11 93 1004 6 S 18.5
Ieri h: 11:20 coperto_pioggia Pioggia Debole 11 10 93 1005 7 S 16.7
Ieri h: 10:50 coperto_pioggia Pioggia Debole 11 10 93 1005 10 S 16.7
Ieri h: 10:20 coperto_pioggia Pioggia Debole 10 9 93 1006 10 N 13
Ieri h: 09:50 coperto_pioggia Pioggia Debole 9 8 93 1006 9 S/SE 11.1
Ieri h: 09:20 coperto_pioggia Pioggia Debole 9 8 93 1007 7 S/SE 13
Ieri h: 08:50 coperto_pioggia Pioggia Debole 9 7 87 1007 10 S 11.1
Ieri h: 08:20 coperto_pioggia Pioggia Debole 8 7 93 1007 10 S/SE 9.3
Ieri h: 07:50 coperto_pioggia Pioggia Debole 8 7 93 1007 10 N 5.5
Ieri h: 07:20 coperto_pioggia Pioggia Debole 8 6 87 1008 10 S 7.4
Ieri h: 06:50 coperto_pioggia Pioggia Debole 7 6 93 1008 10 S 7.4
Ieri h: 06:20 coperto_pioggia Pioggia Debole 7 5 87 1007 10 S 7.4
Ieri h: 05:50 coperto_pioggia Pioggia Debole 7 5 87 1007 10 S 7.4
Ieri h: 05:20 sereno Sereno 7 5 87 1007 10 S 7.4
Ieri h: 04:50 sereno Sereno 7 4 81 1007 10 S 11.1